Location: Old Broadwell Mill Observatory
(33.8015°N, 85.8137°W)
Time: 04:30:38
(UTC-06:00)

Amateur Radio Satellites - All Passes

Search period start: 07 December 2016 04:00
Search period end: 08 December 2016 04:00
Location: Old Broadwell Mill Observatory, 33.8015°N, 85.8137°W

Satellite Date Start Highest point End Downlink Frequencies (MHz)
Time Altitude Azimuth
BEESAT 3 07 Dec 04:22:42 04:26:30 55° 301° (WNW) 04:30:21 437.485
YUBILEINY 07 Dec 04:25:41 04:31:58 21° 70° (ENE) 04:38:14 435.215
ITAMSAT 1 07 Dec 04:26:04 04:28:03 12° 297° (WNW) 04:30:02 435.822/435.867
BRITE-PL 07 Dec 04:27:15 04:32:34 46° 99° (E) 04:38:00 437.365/2234.400
HORYU 2 07 Dec 04:33:04 04:37:03 32° 98° (E) 04:40:58 437.375
PHONESAT 2.4 07 Dec 04:35:43 04:38:20 66° 208° (SSW) 04:40:56 2401.200-2431.200
CUBESAT XI-V 07 Dec 04:44:09 04:48:09 30° 263° (W) 04:52:11 437.345
NOAA 15 07 Dec 04:46:46 04:49:37 15° 93° (E) 04:52:29 137.62
LilacSat-2 07 Dec 04:51:27 04:52:34 11° 93° (E) 04:53:39 437.200
Cosmos 2491 07 Dec 04:51:32 04:56:29 17° 80° (E) 05:01:24 435.465 / 435.565
Cubesat XI-IV 07 Dec 04:53:42 04:56:46 15° 93° (E) 04:59:47 437.490
Cosmos 2504 07 Dec 04:53:47 04:57:47 14° 64° (ENE) 05:01:39 435.465 / 435.565
BEESAT 2 07 Dec 04:54:10 04:58:01 56° 300° (WNW) 05:01:56 435.950
SO-50 07 Dec 05:05:27 05:09:49 52° 245° (WSW) 05:14:07 436.795
STARS 07 Dec 05:06:18 05:07:36 11° 267° (W) 05:08:55 437.465
STRAND 1 07 Dec 05:33:25 05:37:45 28° 69° (ENE) 05:42:05 437.568
GOMX 1 07 Dec 05:35:32 05:41:04 89° 279° (W) 05:46:31 467.674
AO-7 07 Dec 05:36:25 05:41:07 16° 306° (NW) 05:45:49 29.400- 29.500
DOVE 4 07 Dec 05:40:38 05:45:37 41° 98° (E) 05:50:23 437.250
AIST 2 07 Dec 05:56:41 05:57:54 11° 107° (ESE) 05:59:08 435.215
AIST 1 07 Dec 06:04:35 06:08:43 38° 80° (E) 06:12:49
CUTE-I 07 Dec 06:05:24 06:10:45 86° 102° (ESE) 06:16:03 437.470
BRITE-PL 07 Dec 06:06:36 06:10:39 21° 292° (WNW) 06:14:47 437.365/2234.400
HORYU 2 07 Dec 06:10:15 06:13:19 19° 292° (WNW) 06:16:22 437.375
RS-15 07 Dec 06:20:03 06:31:26 65° 112° (ESE) 06:43:24 29.354- 29.394
YUBILEINY 07 Dec 06:20:42 06:29:28 71° 267° (W) 06:38:14 435.215
LilacSat-2 07 Dec 06:23:29 06:26:57 35° 286° (WNW) 06:30:24 437.200
NOAA 18 07 Dec 06:24:22 06:29:56 78° 103° (ESE) 06:35:25 137.9125
NOAA 15 07 Dec 06:24:31 06:29:39 55° 287° (WNW) 06:34:49 137.62
Cubesat XI-IV 07 Dec 06:31:54 06:37:05 53° 287° (WNW) 06:42:14 437.490
CUTE 1.7 + AOD 2 07 Dec 06:38:23 06:41:29 20° 95° (E) 06:44:36 437.475
HO-68 07 Dec 06:42:37 06:48:57 33° 98° (E) 06:55:15 435.675
Cosmos 2491 07 Dec 06:43:21 06:52:09 82° 276° (W) 07:00:57 435.465 / 435.565
Cosmos 2504 07 Dec 06:43:46 06:52:33 83° 84° (E) 07:00:43 435.465 / 435.565
CINEMA 3 07 Dec 06:50:38 06:55:17 52° 99° (E) 06:59:40 145.822/145.860
CANX-2 07 Dec 06:55:57 06:59:54 39° 98° (E) 07:03:51 2200.000
CUBEBUG 2 07 Dec 07:02:09 07:04:23 14° 92° (E) 07:06:36 437.445
PRISM 07 Dec 07:05:20 07:07:03 12° 67° (ENE) 07:08:46 437.425
STRAND 1 07 Dec 07:12:27 07:16:48 28° 263° (W) 07:21:11 437.568
GOMX 1 07 Dec 07:17:33 07:18:16 10° 297° (WNW) 07:18:59 467.674
SEEDS 07 Dec 07:18:47 07:22:45 40° 99° (E) 07:26:43 437.485
DOVE 4 07 Dec 07:19:07 07:22:54 20° 293° (WNW) 07:26:35 437.250
COMPASS 1 07 Dec 07:27:00 07:30:45 32° 97° (E) 07:34:31 437.405
AIST 2 07 Dec 07:31:55 07:35:53 48° 302° (WNW) 07:39:54 435.215
UWE-3 07 Dec 07:40:54 07:44:24 25° 96° (E) 07:47:51 435.000/436.395/437.385
AIST 1 07 Dec 07:43:42 07:45:53 14° 274° (W) 07:48:03
CUTE-I 07 Dec 07:49:44 07:49:59 10° 298° (WNW) 07:50:15 437.470
UNISAT 6 07 Dec 08:00:12 08:02:20 13° 66° (ENE) 08:04:27 437.425
NOAA 18 07 Dec 08:07:45 08:09:50 12° 298° (WNW) 08:11:54 137.9125
CUSAT 1 07 Dec 08:08:38 08:10:58 18° 96° (E) 08:13:03 437.405
CUTE 1.7 + AOD 2 07 Dec 08:13:44 08:17:16 26° 288° (WNW) 08:20:47 437.475
ZACube-1 07 Dec 08:18:42 08:22:42 42° 99° (E) 08:26:37 437.345
FUNcube-1 07 Dec 08:25:37 08:29:39 46° 99° (E) 08:33:37 145.935
TIGRISAT 07 Dec 08:27:54 08:31:42 25° 70° (ENE) 08:35:29 435.000
ANTELSAT 07 Dec 08:29:33 08:33:30 27° 71° (ENE) 08:37:25 437.575/2403.000
CINEMA 3 07 Dec 08:29:40 08:31:49 13° 295° (WNW) 08:33:57 145.822/145.860
HO-68 07 Dec 08:30:01 08:36:38 41° 293° (WNW) 08:43:14 435.675
AAUSAT CUBESAT 2 07 Dec 08:30:39 08:34:39 49° 285° (WNW) 08:38:39 437.432
CANX-2 07 Dec 08:33:09 08:35:23 14° 292° (WNW) 08:37:36 2200.000
RS-15 07 Dec 08:34:02 08:44:38 37° 314° (NW) 08:55:44 29.354- 29.394
CUBEBUG 2 07 Dec 08:37:09 08:41:10 38° 287° (WNW) 08:45:04 437.445
PRISM 07 Dec 08:38:05 08:41:55 41° 261° (W) 08:45:48 437.425
Cosmos 2504 07 Dec 08:39:53 08:44:39 16° 281° (WNW) 08:49:17 435.465 / 435.565
Cosmos 2491 07 Dec 08:46:32 08:50:17 13° 295° (WNW) 08:54:03 435.465 / 435.565
Oscar 11 07 Dec 08:54:23 08:58:41 77° 283° (WNW) 09:02:59 145.826/435.025
SEEDS 07 Dec 08:56:02 08:58:03 13° 292° (WNW) 09:00:03 437.485
COMPASS 1 07 Dec 09:03:26 09:06:00 16° 291° (WNW) 09:08:35 437.405
DANDE 07 Dec 09:05:11 09:09:32 31° 97° (E) 09:12:58 436.750
JUGNU 07 Dec 09:16:43 09:19:20 13° 165° (SSE) 09:21:58 437.505
UWE-3 07 Dec 09:17:30 09:20:42 21° 290° (WNW) 09:23:50 435.000/436.395/437.385
DELFI C3 07 Dec 09:17:42 09:21:41 67° 101° (ESE) 09:25:38 145.870
UNISAT 6 07 Dec 09:33:57 09:38:32 54° 260° (W) 09:43:06 437.425
HUMSAT D 07 Dec 09:34:52 09:38:50 51° 100° (E) 09:42:48 437.325/437.525
JAS-2 07 Dec 09:37:09 09:42:54 34° 71° (ENE) 09:48:06 435.910
Cosmos 2499 07 Dec 09:42:08 09:46:26 15° 65° (ENE) 09:50:35 435.465 / 435.565
NANOSAT C BR1 07 Dec 09:55:04 09:58:19 22° 70° (ENE) 10:01:36 145.865
ZACube-1 07 Dec 09:56:43 09:58:33 13° 293° (WNW) 10:00:22 437.345
QB50P2 07 Dec 10:01:44 10:05:28 30° 72° (ENE) 10:09:14 145.880/145.840
POLYITAN 1 07 Dec 10:02:17 10:05:58 29° 72° (ENE) 10:09:41 437.675
FUNcube-1 07 Dec 10:04:04 10:05:25 11° 294° (WNW) 10:06:45 145.935
TIGRISAT 07 Dec 10:04:16 10:08:13 27° 263° (W) 10:12:10 435.000
ANTELSAT 07 Dec 10:06:18 10:10:05 24° 264° (W) 10:13:53 437.575/2403.000
PCSat 07 Dec 10:09:05 10:14:16 49° 111° (ESE) 10:19:29 145.827
QB50P1 07 Dec 10:14:31 10:18:30 40° 74° (ENE) 10:22:31 145.935-145.965
DUCHIFAT 1 07 Dec 10:15:51 10:19:43 35° 72° (ENE) 10:23:35 145.980
POPSAT HIP 1 07 Dec 10:35:52 10:40:08 74° 76° (ENE) 10:44:25 437.405
AO-85 07 Dec 10:48:50 10:52:42 64° 244° (WSW) 10:56:32 145.980
DANDE 07 Dec 10:49:36 10:52:00 14° 280° (W) 10:54:08 436.750
RS-15 07 Dec 10:57:08 11:02:31 13° 347° (NNW) 11:07:58 29.354- 29.394
GONETS M04 07 Dec 10:58:19 11:06:42 49° 79° (ENE) 11:15:05
JUGNU 07 Dec 11:03:26 11:07:40 20° 175° (S) 11:11:53 437.505
BUGSAT 1 07 Dec 11:06:45 11:10:50 51° 74° (ENE) 11:14:58 437.445
ESTCUBE 1 07 Dec 11:10:21 11:14:53 84° 100° (E) 11:19:25 437.505/2401.250
AISAT 07 Dec 11:11:16 11:15:19 33° 98° (E) 11:19:19 437.250
HUMSAT D 07 Dec 11:13:42 11:13:57 10° 294° (WNW) 11:14:12 437.325/437.525
JAS-2 07 Dec 11:22:07 11:27:52 31° 262° (W) 11:33:06 435.910
NANOSAT C BR1 07 Dec 11:30:21 11:33:53 25° 264° (W) 11:37:26 145.865
Cosmos 2499 07 Dec 11:32:17 11:40:49 89° 80° (E) 11:48:39 435.465 / 435.565
CUBEBUG 1 07 Dec 11:33:12 11:37:40 89° 282° (WNW) 11:42:06 437.445
QB50P2 07 Dec 11:38:20 11:41:16 18° 265° (W) 11:44:12 145.880/145.840
POLYITAN 1 07 Dec 11:38:41 11:41:43 19° 265° (W) 11:44:48 437.675
50 SAT 07 Dec 11:40:47 11:44:19 61° 100° (E) 11:47:50 437.505
VELOX 1 07 Dec 11:47:43 11:52:12 86° 101° (E) 11:56:40 145.980
Oscar 19 07 Dec 11:47:51 11:52:25 34° 70° (ENE) 11:57:00 437.125/150
QB50P1 07 Dec 11:52:17 11:54:23 13° 267° (W) 11:56:32 145.935-145.965
DUCHIFAT 1 07 Dec 11:52:56 11:55:28 15° 266° (W) 11:58:00 145.980
PCSat 07 Dec 11:53:57 11:57:54 20° 307° (NW) 12:01:53 145.827
DX 1 07 Dec 11:56:18 12:00:36 53° 100° (E) 12:04:52 434.975-435.025
Gurwin Techsat 1B 07 Dec 11:56:23 12:00:16 21° 67° (ENE) 12:04:09 435.225
UKube-1 07 Dec 12:00:39 12:04:47 42° 100° (E) 12:08:53 .
SPROUT 07 Dec 12:10:09 12:14:27 78° 282° (WNW) 12:18:41 437.525
BEESAT 3 07 Dec 12:43:34 12:46:49 23° 54° (NE) 12:50:02 437.485
SRMSAT 07 Dec 12:45:26 12:49:12 17° 171° (S) 12:52:58 437.500
BUGSAT 1 07 Dec 12:45:56 12:46:26 10° 268° (W) 12:46:55 437.445
AO-7 07 Dec 12:46:55 12:52:03 18° 55° (NE) 12:57:11 29.400- 29.500
AISAT 07 Dec 12:48:23 12:51:29 19° 292° (WNW) 12:54:35 437.250
JUGNU 07 Dec 12:51:51 12:56:02 20° 185° (S) 13:00:12 437.505
GONETS M04 07 Dec 12:55:50 13:03:03 30° 275° (W) 13:10:17
RS-15 07 Dec 13:15:19 13:22:51 17° 25° (NNE) 13:30:18 29.354- 29.394
BEESAT 2 07 Dec 13:15:54 13:19:12 24° 54° (NE) 13:22:28 435.950
TISAT 1 07 Dec 13:26:42 13:30:54 67° 284° (WNW) 13:35:03 437.305
Oscar 19 07 Dec 13:27:44 13:31:44 23° 264° (W) 13:35:45 437.125/150
Cosmos 2499 07 Dec 13:28:50 13:32:29 14° 283° (WNW) 13:36:04 435.465 / 435.565
DX 1 07 Dec 13:34:43 13:36:16 12° 295° (WNW) 13:37:49 434.975-435.025
Gurwin Techsat 1B 07 Dec 13:34:53 13:39:52 41° 261° (W) 13:44:54 435.225
UKube-1 07 Dec 13:38:09 13:40:25 14° 293° (WNW) 13:42:38 .
ITAMSAT 1 07 Dec 13:57:59 14:03:10 72° 74° (ENE) 14:08:22 435.822/435.867
O/OREOS (USA 219) 07 Dec 13:58:17 14:00:21 13° 99° (E) 14:02:24 437.305
SWISSCUBE 07 Dec 14:03:43 14:08:24 56° 101° (E) 14:13:02 437.505
BEESAT 07 Dec 14:07:36 14:12:16 54° 101° (E) 14:16:54 436.000
AUBIESAT-1 07 Dec 14:13:28 14:17:52 49° 104° (ESE) 14:22:01 437.475
BEESAT 3 07 Dec 14:21:08 14:24:19 23° 249° (WSW) 14:27:29 437.485
M-CUBED/EXP-1 PRIME 07 Dec 14:26:55 14:31:35 90° 269° (W) 14:35:58 437.505
SRMSAT 07 Dec 14:33:26 14:37:43 21° 181° (S) 14:41:59 437.500
AO-7 07 Dec 14:35:24 14:43:43 88° 253° (WSW) 14:52:05 29.400- 29.500
ITUPSAT 1 07 Dec 14:36:17 14:41:02 73° 285° (WNW) 14:45:46 437.325
JUGNU 07 Dec 14:41:55 14:44:21 13° 195° (SSW) 14:46:47 437.505
ISS 07 Dec 14:49:49 14:53:05 83° 316° (NW) 14:56:23 145.825
BEESAT 2 07 Dec 14:53:39 14:56:52 23° 249° (WSW) 15:00:05 435.950
MOZHAYETS 4 07 Dec 14:59:46 15:04:09 46° 99° (E) 15:08:31
KKS-1 07 Dec 15:18:45 15:22:37 28° 97° (E) 15:26:26 437.445
STARS 07 Dec 15:21:53 15:23:49 13° 93° (E) 15:25:43 437.465
RS-15 07 Dec 15:27:05 15:39:09 55° 54° (NE) 15:50:44 29.354- 29.394
HORYU 2 07 Dec 15:27:50 15:31:02 20° 68° (ENE) 15:34:15 437.375
O/OREOS (USA 219) 07 Dec 15:34:53 15:39:16 46° 292° (WNW) 15:43:40 437.305
BRITE-PL 07 Dec 15:35:15 15:38:55 28° 70° (ENE) 15:42:46 437.365/2234.400
ITAMSAT 1 07 Dec 15:42:01 15:43:03 11° 268° (W) 15:44:05 435.822/435.867
SWISSCUBE 07 Dec 15:43:33 15:45:40 13° 295° (WNW) 15:47:45 437.505
BEESAT 07 Dec 15:47:20 15:49:32 13° 295° (WNW) 15:51:44 436.000
CUTE-I 07 Dec 15:48:35 15:49:17 10° 62° (ENE) 15:49:59 437.470
AUBIESAT-1 07 Dec 15:49:20 15:51:45 14° 299° (WNW) 15:54:06 437.475
AIST 2 07 Dec 15:56:50 16:00:38 31° 56° (NE) 16:04:24 435.215
NOAA 15 07 Dec 16:03:13 16:06:29 17° 65° (ENE) 16:09:44 137.62
NOAA 18 07 Dec 16:10:30 16:12:20 12° 61° (ENE) 16:14:10 137.9125
Cubesat XI-IV 07 Dec 16:11:50 16:15:29 19° 66° (ENE) 16:19:07 437.490
SRMSAT 07 Dec 16:22:43 16:26:12 16° 191° (S) 16:29:40 437.500
ISS 07 Dec 16:29:04 16:30:02 11° 333° (NNW) 16:31:00 145.825
AO-7 07 Dec 16:33:28 16:37:20 14° 268° (W) 16:41:13 29.400- 29.500
MOZHAYETS 4 07 Dec 16:38:30 16:40:53 14° 293° (WNW) 16:43:14
GOMX 1 07 Dec 16:39:40 16:44:07 60° 75° (ENE) 16:48:55 467.674
DOVE 4 07 Dec 16:42:12 16:46:09 26° 69° (ENE) 16:50:17 437.250
CUBESAT XI-V 07 Dec 16:43:39 16:48:21 89° 98° (E) 16:53:03 437.345
KKS-1 07 Dec 16:55:34 16:58:58 22° 291° (WNW) 17:02:21 437.445
STARS 07 Dec 16:56:08 17:00:20 45° 287° (WNW) 17:04:31 437.465
Cosmos 2491 07 Dec 16:59:00 17:07:08 42° 77° (ENE) 17:15:12 435.465 / 435.565
LilacSat-2 07 Dec 17:00:53 17:04:39 56° 76° (ENE) 17:08:26 437.200
HORYU 2 07 Dec 17:03:20 17:07:20 31° 262° (W) 17:11:20 437.375
HO-68 07 Dec 17:09:21 17:13:32 17° 59° (ENE) 17:17:43 435.675
BRITE-PL 07 Dec 17:14:19 17:17:25 19° 267° (W) 17:20:40 437.365/2234.400
YUBILEINY 07 Dec 17:21:55 17:28:48 27° 84° (E) 17:35:42 435.215
CUTE-I 07 Dec 17:23:09 17:28:32 86° 257° (WSW) 17:33:56 437.470
Cosmos 2504 07 Dec 17:30:04 17:32:11 11° 76° (ENE) 17:34:20 435.465 / 435.565
AIST 2 07 Dec 17:35:51 17:38:52 19° 250° (WSW) 17:41:51 435.215
SO-50 07 Dec 17:38:51 17:40:05 11° 107° (ESE) 17:41:18 436.795
RS-15 07 Dec 17:40:12 17:51:13 41° 254° (WSW) 18:01:53 29.354- 29.394
NOAA 15 07 Dec 17:40:44 17:45:47 50° 260° (W) 17:50:53 137.62
CANX-2 07 Dec 17:45:49 17:48:36 17° 69° (ENE) 17:51:23 2200.000
NOAA 18 07 Dec 17:46:40 17:52:12 82° 256° (WSW) 17:57:47 137.9125
CINEMA 3 07 Dec 17:47:45 17:52:05 32° 71° (ENE) 17:56:31 145.822/145.860
STRAND 1 07 Dec 17:49:28 17:51:33 12° 92° (E) 17:53:37 437.568
Cubesat XI-IV 07 Dec 17:49:57 17:55:07 47° 260° (W) 18:00:19 437.490
SEEDS 07 Dec 18:07:35 18:10:21 17° 69° (ENE) 18:13:06 437.485
COMPASS 1 07 Dec 18:15:22 18:17:28 14° 68° (ENE) 18:19:33 437.405
DOVE 4 07 Dec 18:19:38 18:23:41 28° 265° (W) 18:27:56 437.250
GOMX 1 07 Dec 18:22:26 18:22:41 10° 271° (W) 18:22:56 467.674
AIST 1 07 Dec 18:29:59 18:33:37 27° 90° (E) 18:37:16
UWE-3 07 Dec 18:34:42 18:37:22 15° 68° (ENE) 18:40:00 435.000/436.395/437.385
CUSAT 1 07 Dec 18:42:51 18:44:42 12° 78° (ENE) 18:46:44 437.405
HO-68 07 Dec 18:53:12 19:00:21 82° 256° (WSW) 19:07:34 435.675
Cosmos 2491 07 Dec 18:56:04 19:03:42 36° 274° (W) 19:11:22 435.465 / 435.565
CUTE 1.7 + AOD 2 07 Dec 19:01:32 19:05:42 63° 260° (W) 19:09:53 437.475
PCSat 07 Dec 19:01:42 19:05:30 19° 52° (NE) 19:09:15 145.827
ZACube-1 07 Dec 19:10:46 19:14:18 23° 70° (ENE) 19:17:47 437.345
SO-50 07 Dec 19:15:13 19:19:59 66° 300° (WNW) 19:24:42 436.795
Cosmos 2504 07 Dec 19:15:39 19:23:54 77° 93° (E) 19:32:41 435.465 / 435.565
AAUSAT CUBESAT 2 07 Dec 19:16:27 19:20:28 60° 76° (ENE) 19:24:31 437.432
YUBILEINY 07 Dec 19:16:33 19:24:59 54° 280° (W) 19:33:31 435.215
FUNcube-1 07 Dec 19:17:17 19:20:55 24° 71° (ENE) 19:24:32 145.935
CANX-2 07 Dec 19:20:27 19:24:11 30° 263° (W) 19:27:56 2200.000
CINEMA 3 07 Dec 19:25:17 19:29:10 23° 266° (W) 19:33:08 145.822/145.860
STRAND 1 07 Dec 19:26:02 19:31:03 60° 286° (WNW) 19:36:02 437.568
CUBEBUG 2 07 Dec 19:29:58 19:34:44 80° 259° (W) 19:39:28 437.445
SEEDS 07 Dec 19:42:08 19:45:46 30° 263° (W) 19:49:27 437.485
Oscar 11 07 Dec 19:45:00 19:49:08 47° 74° (ENE) 19:53:16 145.826/435.025
COMPASS 1 07 Dec 19:48:48 19:52:38 37° 262° (W) 19:56:29 437.405
DELFI C3 07 Dec 20:00:07 20:03:07 21° 71° (ENE) 20:06:07 145.870
AIST 1 07 Dec 20:08:06 20:11:09 19° 284° (WNW) 20:14:14
UWE-3 07 Dec 20:08:56 20:13:24 45° 261° (W) 20:17:50 435.000/436.395/437.385
CUSAT 1 07 Dec 20:22:25 20:26:23 45° 263° (W) 20:31:32 437.405
HUMSAT D 07 Dec 20:22:40 20:25:54 22° 71° (ENE) 20:29:07 437.325/437.525
PRISM 07 Dec 20:23:11 20:26:57 33° 98° (E) 20:30:43 437.425
PCSat 07 Dec 20:43:55 20:49:12 54° 248° (WSW) 20:54:26 145.827
ZACube-1 07 Dec 20:46:29 20:50:23 28° 263° (W) 20:54:15 437.345
HO-68 07 Dec 20:47:55 20:48:54 10° 270° (W) 20:49:53 435.675
FUNcube-1 07 Dec 20:53:15 20:57:00 25° 264° (W) 21:00:44 145.935
Cosmos 2504 07 Dec 21:12:32 21:18:12 19° 292° (WNW) 21:24:06 435.465 / 435.565
ISS 07 Dec 21:21:19 21:23:50 20° 34° (NNE) 21:26:20 145.825
Oscar 11 07 Dec 21:24:01 21:25:27 11° 268° (W) 21:26:54 145.826/435.025
DANDE 07 Dec 21:27:42 21:30:22 25° 263° (W) 21:33:38 436.750
UNISAT 6 07 Dec 21:29:50 21:33:56 40° 98° (E) 21:37:58 437.425
DELFI C3 07 Dec 21:34:49 21:37:48 21° 264° (W) 21:40:48 145.870
HUMSAT D 07 Dec 21:57:55 22:01:22 24° 264° (W) 22:04:47 437.325/437.525
TIGRISAT 07 Dec 21:59:02 22:03:24 88° 102° (ESE) 22:07:40 435.000
PRISM 07 Dec 21:59:20 22:01:57 16° 292° (WNW) 22:04:33 437.425
ANTELSAT 07 Dec 22:01:01 22:05:23 82° 282° (WNW) 22:09:39 437.575/2403.000
AISAT 07 Dec 22:05:30 22:08:33 19° 68° (ENE) 22:11:38 437.250
ESTCUBE 1 07 Dec 22:05:52 22:10:08 46° 74° (ENE) 22:14:25 437.505/2401.250
50 SAT 07 Dec 22:13:51 22:15:35 13° 69° (ENE) 22:17:19 437.505
Cosmos 2499 07 Dec 22:15:30 22:18:48 13° 77° (ENE) 22:22:09 435.465 / 435.565
CUBEBUG 1 07 Dec 22:25:05 22:29:13 44° 74° (ENE) 22:33:23 437.445
PHONESAT 2.4 07 Dec 22:25:08 22:27:44 49° 151° (SSE) 22:30:19 2401.200-2431.200
POPSAT HIP 1 07 Dec 22:25:50 22:28:25 16° 94° (E) 22:30:57 437.405
JAS-2 07 Dec 22:34:19 22:39:09 37° 99° (E) 22:44:19 435.910
VELOX 1 07 Dec 22:40:57 22:45:08 45° 73° (ENE) 22:49:22 145.980
DX 1 07 Dec 22:48:13 22:51:54 28° 71° (ENE) 22:55:36 434.975-435.025
UKube-1 07 Dec 22:51:50 22:55:09 22° 69° (ENE) 22:58:29 .
ISS 07 Dec 22:57:20 23:00:23 35° 229° (SW) 23:03:26 145.825
SPROUT 07 Dec 22:59:23 23:03:29 46° 74° (ENE) 23:07:38 437.525
UNISAT 6 07 Dec 23:07:58 23:10:15 14° 293° (WNW) 23:12:31 437.425
NANOSAT C BR1 07 Dec 23:17:40 23:21:52 67° 101° (ESE) 23:26:01 145.865
QB50P2 07 Dec 23:25:29 23:29:43 82° 285° (WNW) 23:33:55 145.880/145.840
POLYITAN 1 07 Dec 23:25:57 23:30:12 87° 283° (WNW) 23:34:23 437.675
QB50P1 07 Dec 23:38:23 23:42:34 61° 284° (WNW) 23:46:42 145.935-145.965
DUCHIFAT 1 07 Dec 23:38:49 23:43:01 72° 285° (WNW) 23:47:10 145.980
AISAT 07 Dec 23:40:47 23:44:44 32° 262° (W) 23:48:44 437.250
ESTCUBE 1 07 Dec 23:45:08 23:47:07 13° 267° (W) 23:49:06 437.505/2401.250
50 SAT 07 Dec 23:45:36 23:48:36 26° 262° (W) 23:51:37 437.505
GONETS M04 07 Dec 23:53:58 00:02:33 65° 92° (E) 00:11:06
POPSAT HIP 1 08 Dec 00:00:26 00:04:14 33° 288° (WNW) 00:08:01 437.405
PHONESAT 2.4 08 Dec 00:00:41 00:03:02 27° 346° (NNW) 00:05:22 2401.200-2431.200
Cosmos 2499 08 Dec 00:01:54 00:10:23 81° 95° (E) 00:19:18 435.465 / 435.565
CUBEBUG 1 08 Dec 00:03:47 00:05:41 13° 267° (W) 00:07:35 437.445
Oscar 19 08 Dec 00:04:14 00:07:27 16° 94° (E) 00:10:40 437.125/150
O/OREOS (USA 219) 08 Dec 00:11:05 00:13:26 14° 59° (ENE) 00:15:47 437.305
TISAT 1 08 Dec 00:14:00 00:18:06 51° 74° (ENE) 00:22:13 437.305
Gurwin Techsat 1B 08 Dec 00:19:16 00:19:35 10° 91° (E) 00:19:56 435.225
VELOX 1 08 Dec 00:19:47 00:21:46 13° 267° (W) 00:23:45 145.980
JAS-2 08 Dec 00:20:07 00:24:04 22° 292° (WNW) 00:28:10 435.910
DX 1 08 Dec 00:24:47 00:28:02 20° 264° (W) 00:31:18 434.975-435.025
UKube-1 08 Dec 00:27:27 00:31:01 25° 263° (W) 00:34:37 .
BUGSAT 1 08 Dec 00:27:35 00:31:39 51° 285° (WNW) 00:35:37 437.445
SPROUT 08 Dec 00:38:02 00:39:36 12° 267° (W) 00:41:11 437.525
AUBIESAT-1 08 Dec 00:55:14 00:58:53 31° 66° (ENE) 01:02:44 437.475
AO-85 08 Dec 00:58:16 01:03:18 80° 299° (WNW) 01:08:00 145.980
SWISSCUBE 08 Dec 01:06:17 01:10:44 41° 72° (ENE) 01:15:12 437.505
M-CUBED/EXP-1 PRIME 08 Dec 01:08:52 01:12:50 57° 70° (ENE) 01:17:09 437.505
BEESAT 08 Dec 01:10:06 01:14:33 40° 72° (ENE) 01:19:00 436.000
PHONESAT 2.4 08 Dec 01:36:44 01:38:43 18° 3° (N) 01:40:41 2401.200-2431.200
ITUPSAT 1 08 Dec 01:38:48 01:43:35 83° 76° (ENE) 01:48:22 437.325
Oscar 19 08 Dec 01:41:59 01:46:58 48° 287° (WNW) 01:51:56 437.125/150
O/OREOS (USA 219) 08 Dec 01:48:47 01:53:04 45° 255° (WSW) 01:57:18 437.305
TISAT 1 08 Dec 01:53:22 01:53:58 10° 268° (W) 01:54:33 437.305
GONETS M04 08 Dec 01:53:25 01:59:55 23° 289° (WNW) 02:06:27
Gurwin Techsat 1B 08 Dec 01:54:41 02:00:00 76° 285° (WNW) 02:05:17 435.225
MOZHAYETS 4 08 Dec 01:58:00 02:01:53 28° 71° (ENE) 02:05:47
Cosmos 2499 08 Dec 01:58:51 02:04:28 19° 292° (WNW) 02:10:15 435.465 / 435.565
KKS-1 08 Dec 02:13:50 02:16:42 17° 67° (ENE) 02:19:35 437.445
ITAMSAT 1 08 Dec 02:15:08 02:19:50 34° 98° (E) 02:24:29 435.822/435.867
AUBIESAT-1 08 Dec 02:30:25 02:33:19 19° 262° (W) 02:36:20 437.475
AO-7 08 Dec 02:41:49 02:49:34 40° 100° (E) 02:57:16 29.400- 29.500
SWISSCUBE 08 Dec 02:45:39 02:48:38 16° 266° (W) 02:51:37 437.505
BEESAT 08 Dec 02:49:22 02:52:26 17° 266° (W) 02:55:29 436.000
PHONESAT 2.4 08 Dec 03:11:48 03:14:19 39° 18° (NNE) 03:16:49 2401.200-2431.200
MOZHAYETS 4 08 Dec 03:35:25 03:38:59 22° 264° (W) 03:42:34
CUBESAT XI-V 08 Dec 03:42:53 03:47:20 53° 75° (ENE) 03:51:49 437.345
BRITE-PL 08 Dec 03:43:35 03:47:09 17° 93° (E) 03:50:45 437.365/2234.400
STARS 08 Dec 03:48:11 03:52:37 87° 257° (WSW) 03:57:04 437.465
KKS-1 08 Dec 03:48:48 03:52:55 36° 261° (W) 03:57:04 437.445
SO-50 08 Dec 03:50:37 03:54:47 36° 56° (NE) 03:58:52 436.795
